Weather History for Poplar Bluff, MO

Change the Weather History Date:

Monday, December 31, 2012

  Actual Average Record
Temperature  
Mean Temperature 36 °F -  
Max Temperature 39 °F 43 °F 76 °F (1951)
Min Temperature 34 °F 25 °F -1 °F (1976)
Degree Days  
Heating Degree Days 28    
Moisture  
Dew Point 33 °F    
Average Humidity 87    
Maximum Humidity 100    
Minimum Humidity 76    
Precipitation  
Precipitation 0.36 in - - ()
Sea Level Pressure  
Sea Level Pressure 30.14 in    
Wind  
Wind Speed 3 mph (SE)    
Max Wind Speed 10 mph    
Max Gust Speed -    
Visibility 5 miles    
Events Rain    
Averages and records for this station are not official NWS values.
T = Trace of Precipitation, MM = Missing Value Source: NWS Daily Summary

Daily Weather History Graph

Daily Weather History Graph

Search for Another Location

Airport:

Trip Planner

Search our weather history database for the weather conditions in past years. The results will help you decide how hot, cold, wet, or windy it might be!

Date:

Astronomy

Dec. 31, 2012 Rise Set
Actual Time 7:13 AM CST 4:55 PM CST
Civil Twilight 6:45 AM CST 5:24 PM CST
Nautical Twilight 6:12 AM CST 5:56 PM CST
Astronomical Twilight 5:41 AM CST 6:28 PM CST
Moon 8:20 PM CST (12/31) 9:00 AM CST (12/31)
Length of Visible Light 10h 39m
Length of Day
9h 41m
Waning Gibbous, 90% of the Moon is Illuminated
Dec 31
Waning Gibbous
Jan 4
Last Quarter
Jan 11
New
Jan 18
First Quarter
Jan 26
Full

Hourly Weather History & Observations

Time (CST) Temp. Windchill Dew Point Humidity Pressure Visibility Wind Dir Wind Speed Gust Speed Precip Events Conditions
12:53 AM 34.0 °F 29.8 °F 28.0 °F 79% 30.30 in 10.0 mi South 4.6 mph - N/A   Clear
1:53 AM 34.0 °F 29.8 °F 28.0 °F 79% 30.31 in 10.0 mi SSW 4.6 mph - N/A   Clear
2:53 AM 35.1 °F - 28.0 °F 76% 30.32 in 10.0 mi Calm Calm - N/A   Mostly Cloudy
3:53 AM 34.0 °F - 28.0 °F 79% 30.31 in 9.0 mi Calm Calm - N/A   Overcast
4:53 AM 34.0 °F 31.0 °F 28.0 °F 79% 30.30 in 9.0 mi South 3.5 mph - N/A   Overcast
5:53 AM 35.1 °F 30.1 °F 28.9 °F 78% 30.27 in 9.0 mi South 5.8 mph - 0.01 in Rain Light Rain
6:53 AM 35.1 °F 29.3 °F 30.0 °F 82% 30.26 in 9.0 mi SSW 6.9 mph - 0.02 in Rain Light Rain
7:53 AM 35.1 °F - 30.9 °F 85% 30.25 in 7.0 mi Calm Calm - 0.01 in   Overcast
8:53 AM 35.1 °F 32.2 °F 30.9 °F 85% 30.25 in 4.0 mi WSW 3.5 mph - 0.00 in Rain Light Rain
9:53 AM 35.1 °F - 30.9 °F 85% 30.25 in 7.0 mi Calm Calm - 0.01 in   Overcast
10:53 AM 36.0 °F - 32.0 °F 86% 30.25 in 8.0 mi Calm Calm - N/A   Overcast
11:53 AM 37.9 °F - 30.9 °F 76% 30.19 in 10.0 mi Calm Calm - N/A   Overcast
12:53 PM 39.0 °F 36.8 °F 32.0 °F 76% 30.16 in 10.0 mi SSW 3.5 mph - N/A   Overcast
1:53 PM 39.0 °F 35.7 °F 32.0 °F 76% 30.15 in 9.0 mi South 4.6 mph - N/A   Overcast
2:53 PM 39.0 °F 34.8 °F 33.1 °F 79% 30.14 in 3.0 mi SSW 5.8 mph - 0.02 in Rain Rain
3:38 PM 37.4 °F 34.9 °F 33.8 °F 87% 30.11 in 2.5 mi South 3.5 mph - 0.04 in Rain Light Rain
3:53 PM 37.0 °F 34.5 °F 35.1 °F 93% 30.13 in 2.5 mi SSE 3.5 mph - 0.04 in Rain Light Rain
4:09 PM 37.4 °F - 35.6 °F 93% 30.11 in 1.8 mi Calm Calm - 0.01 in Rain Light Rain
4:44 PM 37.4 °F - 35.6 °F 93% 30.11 in 0.8 mi Calm Calm - 0.09 in Rain Rain
4:50 PM 37.4 °F 34.9 °F 33.8 °F 87% 30.11 in 1.0 mi NNE 3.5 mph - 0.10 in Rain Light Rain
4:53 PM 37.0 °F 34.5 °F 34.0 °F 89% 30.12 in 1.0 mi NE 3.5 mph - 0.10 in Rain Rain
5:06 PM 37.4 °F 34.9 °F 33.8 °F 87% 30.10 in 2.0 mi NNE 3.5 mph - 0.02 in Rain Light Rain
5:25 PM 37.4 °F 32.1 °F 33.8 °F 87% 30.08 in 2.5 mi ENE 6.9 mph - 0.03 in Rain Light Rain
5:39 PM 37.4 °F 32.8 °F 33.8 °F 87% 30.10 in 2.5 mi NE 5.8 mph - 0.05 in Rain Rain
5:53 PM 36.0 °F 32.1 °F 34.0 °F 93% 30.10 in 2.5 mi East 4.6 mph - 0.08 in Rain Rain
5:59 PM 35.6 °F 31.7 °F 33.8 °F 93% 30.08 in 3.0 mi East 4.6 mph - 0.00 in Rain Light Rain
6:10 PM 35.6 °F - 35.6 °F 100% 30.09 in 2.5 mi Calm Calm - 0.02 in Rain Light Rain
6:53 PM 36.0 °F 28.5 °F 34.0 °F 93% 30.07 in 2.5 mi ESE 10.4 mph - 0.07 in Rain Light Rain
7:00 PM 35.6 °F 29.9 °F 33.8 °F 93% 30.05 in 4.0 mi ESE 6.9 mph - N/A Rain Light Rain
7:10 PM 35.6 °F 29.9 °F 33.8 °F 93% 30.06 in 4.0 mi SE 6.9 mph - 0.00 in   Overcast
7:26 PM 35.6 °F 30.7 °F 33.8 °F 93% 30.06 in 3.0 mi SE 5.8 mph - 0.00 in   Overcast
7:53 PM 37.0 °F 31.6 °F 34.0 °F 89% 30.09 in 4.0 mi SSE 6.9 mph - 0.00 in   Overcast
8:08 PM 37.4 °F 32.8 °F 33.8 °F 87% 30.07 in 4.0 mi SE 5.8 mph - N/A   Overcast
8:53 PM 37.0 °F - 35.1 °F 93% 30.08 in 5.0 mi Calm Calm - N/A   Overcast
9:19 PM 37.4 °F - 33.8 °F 87% 30.05 in 3.0 mi Calm Calm - N/A   Overcast
9:27 PM 37.4 °F - 33.8 °F 87% 30.06 in 3.0 mi Calm Calm - N/A   Overcast
9:48 PM 37.4 °F - 33.8 °F 87% 30.05 in 2.5 mi Calm Calm - N/A   Overcast
9:53 PM 37.0 °F - 35.1 °F 93% 30.07 in 2.0 mi Calm Calm - N/A   Overcast
10:16 PM 37.4 °F - 35.6 °F 93% 30.06 in 1.8 mi Calm Calm - N/A   Overcast
10:53 PM 37.0 °F - 35.1 °F 93% 30.07 in 1.5 mi Calm Calm - N/A   Overcast
11:53 PM 37.0 °F 34.5 °F 35.1 °F 93% 30.08 in 2.0 mi North 3.5 mph - N/A   Overcast